FLOCK 3P-51

Last updated on Wed Feb 14 2018 16:20:16 GMT+0000 (Coordinated Universal Time)

1 41952U 17008E 18044.88932343 .00001042 00000-0 46104-4 0 9990 2 41952 97.4661 110.4826 0009915 85.8690 274.3680 15.23891885 55334
UTC large
Height (km)
Speed (km/s)
/
Latitude / Longitude
Inclination (degrees)
Orbital Period (minutes)
Azimuth
Elevation
Range (km)
Doppler Factor

Next 0 passes for location: London (51.5072 / 0.1276)

Sorry there are no passes over London.